Flag for U.S.A. Weather past 2 weeks in Rapid City, South Dakota, U.S.A.

Now
79 °F

Sunny.


Feels Like: 78 °F
Forecast: 53 / 86 °F
Wind: 6 mph from Northeast

Location: Ellsworth Air Force Base

Current Time: Jul 29, 2015 at 8:52:14 PM

Latest Report: Jul 29, 2015 at 7:58 PM


Visibility: 10 mi

Pressure: 30.11 "Hg (26.93 "Hg at 977m altitude)

Humidity: 26%

Dew point: 42 °F

Location of Rapid CityLocation

Historic Weather in Rapid City — Graph

°F

Rapid City temperature yesterday

Maximum temperature yesterday: 78 °F (at 3:58 PM)
Minimum temperature yesterday: 55 °F (at 5:58 AM)
Average temperature yesterday: 66 °F

Past Weeks' High & Low Weather Summary

 TemperatureHumidityPressure
High95 °F (Jul 23, 3:58 PM)96% (Jul 15, 1:58 AM)30.21 "Hg (Jul 15, 1:58 AM)
Low53 °F (Jul 29, 4:58 AM)23% (Jul 29, 6:58 PM)29.55 "Hg (Jul 27, 3:58 PM)
Average73 °F58%29.87 "Hg
* Reported Jul 14 7:58 PM — Jul 29 7:58 PM, Rapid City, Weather by CustomWeather, © 2015

Note: Actual official high and low records may vary slightly from our data, if they occured in-between our weather recording intervals... More about our weather records

Advertising

Rapid City weather history for previous 24 hours

 ConditionsComfort  
Time TempWeatherWind HumidityBarometerVisibility
7:58 PM
Wed, Jul 29
79 °FSunny.6 mph26%30.11 "Hg10 mi
6:58 PM82 °FSunny.5 mph23%30.10 "Hg10 mi
5:58 PM81 °FSunny.7 mph27%30.11 "Hg10 mi
4:58 PM82 °FSunny.No wind24%30.12 "Hg10 mi
3:58 PM82 °FSunny.5 mph25%30.13 "Hg10 mi
2:58 PM81 °FSunny.6 mph26%30.15 "Hg10 mi
1:58 PM80 °FSunny.3 mph25%30.16 "Hg10 mi
12:58 PM79 °FSunny.6 mph25%30.17 "Hg10 mi
11:58 AM78 °FSunny.7 mph25%30.19 "Hg10 mi
10:58 AM77 °FSunny.7 mph27%30.21 "Hg10 mi
9:58 AM75 °FSunny.13 mph28%30.19 "Hg10 mi
8:58 AM73 °FSunny.14 mph33%30.21 "Hg10 mi
7:58 AM67 °FSunny.8 mph43%30.19 "Hg10 mi
6:58 AM60 °FSunny.10 mph51%30.19 "Hg10 mi
5:58 AM53 °FSunny.9 mph61%30.19 "Hg10 mi
4:58 AM53 °FClear.8 mph61%30.17 "Hg10 mi
3:58 AM55 °FClear.9 mph57%30.16 "Hg10 mi
2:58 AM54 °FClear.8 mph60%30.16 "Hg10 mi
1:58 AM54 °FClear.10 mph65%30.14 "Hg10 mi
12:58 AM58 °FClear.10 mph52%30.11 "Hg10 mi
11:58 PM
Tue, Jul 28
55 °FClear.12 mph66%30.13 "Hg10 mi
10:58 PM58 °FClear.10 mph60%30.13 "Hg10 mi
9:58 PM60 °FClear.13 mph55%30.12 "Hg10 mi
8:58 PM63 °FClear.13 mph50%30.10 "Hg10 mi
Weather by CustomWeather, © 2015

See weather overviewHow to use our weather pages